Погода в Петре

Иордания     30°19′44″N   35°26′51″E
темп.,
°C
ветер,
м/с
пор.,
м/с
влажн.,
%
обл.,
%
осадки,
мм/ч
давл.,
гПа
погр.,
м
10 августа, ср
ср1000:00+20зсз33560 0.0 101195
03:00+19зсз33440 0.0 101068
06:00+19зсз33370 0.0 101044
09:00+23зсз22260 0.0 1010255
12:00+29з34210 0.0 1008911
15:00+28зсз44310 0.0 1008529
18:00+26зсз45360 0.0 1008394
21:00+21сз45560 0.0 1010264
11 августа, чт
чт1100:00+19сз23680 0.0 1010101
03:00+20сз22480 0.0 100937
06:00+19зсз22450 0.0 101021
09:00+24зсз22330 0.0 1010295
12:00+28зсз44270 0.0 1009768
15:00+29зсз55310 0.0 1008624
18:00+27зсз45360 0.0 1008421
21:00+23сз34450 0.0 1010257
12 августа, пт
пт1200:00+21ссз12540 0.0 101045
03:00+21сз22520 0.0 101016
06:00+20ссз11460 0.0 101011
09:00+24зсз21330 0.0 1010297
12:00+29зсз43280 0.0 1009797
15:00+30зсз54270 0.0 1008598
18:00+27сз45310 0.0 1008405
21:00+22сз35460 0.0 1010227
13 августа, сб
сб1300:00+21зсз33540 0.0 101054
03:00+20зсз33470 0.0 101045
06:00+19зсз32350 0.0 101026
09:00+22зсз44260 0.0 1010259
12:00+26зсз44230 0.0 1009533
15:00+28зсз55220 0.0 1008574
18:00+25зсз77310 0.0 1008488
21:00+20зсз47600 0.0 1009299
14 августа, вс
вс1400:00+18зсз33810 0.0 100971
03:00+17зсз22620 0.0 100939
06:00+17сз22490 0.0 100912
09:00+23зсз22320 0.0 1009240
12:00+27зсз43280 0.0 1008733
15:00+28зсз44340 0.0 1007541
18:00+26зсз44350 0.0 1007396
21:00+22сз34530 0.0 1009185